Regional Weather Roundup
Issued by NWS

Home | Current Version | Previous Version | Text Only | Print | Product List | Glossary On
Versions: 1 2 3 4 5 6 7 8 9 10 11 12 13 14 15 16 17 18 19 20 21 22 23 24 25 26 27 28 29 30 31 32 33 34 35 36 37 38 39 40 41 42 43 44 45 46 47 48 49 50
000
ASUS43 KLOT 252309
RWRIL

ILLINOIS REGIONAL WEATHER ROUNDUP
NATIONAL WEATHER SERVICE CHICAGO/ROMEOVILLE IL
600 PM CDT MON SEP 25 2017

NOTE: "FAIR" INDICATES FEW OR NO CLOUDS BELOW 12,000 FEET WITH NO
SIGNIFICANT WEATHER AND/OR OBSTRUCTIONS TO VISIBILITY.

* THESE STATIONS ARE NOT UNDER NWS QUALITY CONTROL. THEY ALSO MAY NOT
  REPORT WEATHER SUCH AS PRECIPITATION OR FOG.

ILZ001-002-007-009-015-016-024-260000-
NORTHWEST ILLINOIS

CITY           SKY/WX    TMP DP  RH WIND       PRES   REMARKS
MOLINE         PTCLDY    83  65  54 SW7       29.88R HX  85
STERLING*      CLEAR     88  59  37 CALM      29.90R HX  87
SAVANNA*       CLEAR     86  65  50 SW5       29.88S HX  87
$$

ILZ003-004-008-010-011-017-018-260000-
NORTH CENTRAL ILLINOIS

CITY           SKY/WX    TMP DP  RH WIND       PRES   REMARKS
ROCKFORD       PTCLDY    87  57  35 SE9       29.91S HX  86
FREEPORT*      CLEAR     86  59  40 S6        29.93R HX  85
ROCHELLE*      CLEAR     87  59  39 SE7       29.91F HX  86
DE KALB*       CLEAR     85  59  40 SE6       29.93S HX  85
PERU*          PTCLDY    85  59  40 SE5       29.90S HX  85
$$

ILZ005-006-012>014-019>023-260000-
NORTHEAST ILLINOIS

CITY           SKY/WX    TMP DP  RH WIND       PRES   REMARKS
CHICAGO-OHARE  PTCLDY    87  54  32 SE15      29.91S HX  85
CHICAGO-MIDWAY PTCLDY    87  54  32 E10       29.92S HX  85
AURORA         CLEAR     85  61  44 SE5       29.92S HX  85
LANSING*       CLEAR     85  60  41 S6        29.93F HX  85
JOLIET*        CLOUDY    88  61  39 S5        29.92S HX  88
WAUKEGAN       CLEAR     80  62  54 SE12      29.93S HX  81
DUPAGE AIRPORT CLEAR     85  60  42 S6        29.91S HX  85
KANKAKEE*      CLEAR     86  58  38 S5        29.93S HX  85
WHEELING       CLEAR     86  58  38 E9        29.93S HX  85
MORRIS*        CLEAR     86  60  41 SE6       29.91S HX  85
ROMEOVILLE*    CLEAR     85  61  43 SE6       29.92S HX  85
NORTHERLY ISL    N/A     78  64  61 E8          N/A  HX  80
$$

LMZ740>746-260000-
SOUTHERN LAKE MICHIGAN

STATION/POSITION SKY/WX   TEMP    WIND        PRES    VSBY  WAVE
                          AIR SEA DIR/SP/G                  HT/PER
                          (F)     (DEG/KT/KT) (MB)    (MI)  (FT/S)
SOUTHERN BUOY              74 72  140/  4/  4 1014.0R         1
WILMETTE HARBOR            77 72  120/ 10/ 12   N/A           1/ 2
HARRISON CRIB              80     110/ 14/ 15   N/A
BURNHAM HARBOR             77                   N/A
CALUMET HARBOR             80      50/  6/  9 1013.0F
BURNS HARBOR               78      90/  7/ 12 1014.2
MICHIGAN CITY              86     100/  5/  6   N/A
MICHIGAN CITY 6N           77 74   90/  6/  8   N/A           0
ST. JOSEPH                 79 74   40/  4/  4 1013.7          0
$$

ILZ025>027-034>036-040-047-049-050-058-095>099-260000-
WEST-CENTRAL ILLINOIS

CITY           SKY/WX    TMP DP  RH WIND       PRES   REMARKS
QUINCY         PTCLDY    84  66  54 S5        29.90R HX  86
GALESBURG*     CLEAR     86  60  41 S7        29.91S HX  86
MACOMB*        CLEAR     87  60  40 S5        29.92R HX  86
JACKSONVILLE*  CLEAR     87  61  42 S8        29.90S HX  87
PITTSFIELD*    CLEAR     87  62  42 S5        29.91R HX  87
$$

ILZ028>032-037-038-041>044-048-051>054-059>061-260000-
CENTRAL ILLINOIS

CITY           SKY/WX    TMP DP  RH WIND       PRES   REMARKS
PONTIAC        CLEAR     88  58  36 SE7       29.92S HAZE    HX  87
BLOOMINGTON    PTCLDY    84  61  45 SE8       29.93S HX  84
DECATUR        PTCLDY    86  61  42 SE6       29.91S HX  86
PEORIA         CLEAR     88  59  37 S6        29.90R HX  87
LACON*         CLEAR     89  59  36 S3        29.89S HX  88
LINCOLN*       CLEAR     89  62  40 S6        29.90S HX  89
SPRINGFIELD    CLEAR     90  61  37 S7        29.90S HX  90
TAYLORVILLE    CLEAR     87  62  42 S5        29.92R HX  87
$$

ILZ033-039-045-046-055>057-062-063-260000-
EAST-CENTRAL ILLINOIS

CITY           SKY/WX    TMP DP  RH WIND       PRES   REMARKS
CHAMPAIGN      CLEAR     89  56  32 S3        29.93S HX  87
RANTOUL*       CLEAR     89  60  37 SE5       29.93R HX  89
MATTOON        CLEAR     87  62  43 S3        29.91F HX  87
PARIS*         CLEAR     88  60  39 SE7       29.93S HX  87
$$

ILZ079-100>102-260000-
SOUTHWEST ILLINOIS

CITY           SKY/WX    TMP DP  RH WIND       PRES   REMARKS
ALTON          PTCLDY    88  64  45 S12       29.91S HX  89
BELLEVILLE     CLEAR     88  62  41 SW12      29.90R HX  88
CAHOKIA*       CLEAR     90  60  36 SE10      29.89S HX  89
SPARTA*        CLEAR     87  60  39 S6        29.93S HX  87
$$

ILZ064>066-069>071-074>076-080>082-084>086-088>090-092>094-260000-
SOUTH-CENTRAL ILLINOIS

CITY           SKY/WX    TMP DP  RH WIND       PRES   REMARKS
CARBONDALE     CLEAR     85  65  51 SW8       29.91F HX  86
CAIRO*         CLEAR     86  65  49 CALM      29.92S HX  88
EFFINGHAM*     CLEAR     89  60  38 SE5       29.93S HX  89
MARION         PTCLDY    90  61  37 S7        29.93S HX  89
MT. VERNON       N/A     88  65  46 S3        29.92S HX  90
CENTRALIA*     CLEAR     89  63  41 S7        29.91S HX  90
SALEM*         CLEAR     91  56  30 S5        29.92S HX  89
METROPOLIS*    CLEAR     85  66  52 CALM      29.93S HX  87
$$

ILZ067-068-072-073-078-083-087-091-260000-
SOUTHEAST ILLINOIS

CITY           SKY/WX    TMP DP  RH WIND       PRES   REMARKS
LAWRENCEVILLE  CLEAR     87  66  49 SE6       29.93S HX  89
FLORA*         CLEAR     89  63  42 S8        29.92S HX  90
FAIRFIELD*     CLEAR     88  63  42 CALM      29.91S HX  89
HARRISBURG*    MOCLDY    90  65  43 S7        29.92S HX  91
ROBINSON*      MOCLDY    87  64  46 S3        29.93F HX  88
CARMI*         CLEAR     87  62  43 SE6       29.92S HX  87
$$

ABBREVIATIONS USED IN REMARKS
   TC - TEMPERATURE IN CELSIUS
  WCI - WIND CHILL INDEX
   HX - HEAT INDEX
  VSB - VISIBILITY
$$





USA.gov is the U.S. government's official web portal to all federal, state and local government web resources and services.